Regional Weather Roundup
Issued by NWS

Home | Current Version | Previous Version | Graphics & Text | Print | Product List | Glossary On
Versions: 1 2 3 4 5 6 7 8 9 10 11 12 13 14 15 16 17 18 19 20 21 22 23 24 25 26 27 28 29 30 31 32 33 34 35 36 37 38 39 40 41 42 43 44 45 46 47 48 49 50
000
ASUS44 KMEG 310510
RWRTN
TENNESSEE HOURLY STATE WEATHER ROUNDUP
NATIONAL WEATHER SERVICE MEMPHIS TN
1200 AM CDT MON AUG 31 2015

TNZ002-004-019-021-049-052-054-088>092-310600-
WEST TENNESSEE

CITY           SKY/WX    TMP DP  RH WIND       PRES   REMARKS
MEMPHIS INTL   PTCLDY    76  69  79 SE3       30.03S
NWS MEMPHIS      N/A     73 N/A N/A MISG        N/A
JACKSON        CLEAR     71  68  90 S5        30.06S
DYERSBURG      CLEAR    N/A N/A N/A MISG        N/A
UNION CITY     CLEAR    N/A N/A N/A CALM      30.04S
PARIS          CLEAR     66  66 100 CALM      30.07S
LEXINGTON      CLEAR     68  66  94 SE3       30.07S
$$

TNZ008-025-027-028-033-062-065-066-310600-
NORTH MIDDLE TENNESSEE

CITY           SKY/WX    TMP DP  RH WIND       PRES   REMARKS
NASHVILLE      MOCLDY    70  65  84 CALM      30.10S
CLARKSVILLE    PTCLDY    68  67  96 SE5       30.08S FOG
SMYRNA         PTCLDY    69  67  93 CALM      30.11S
COOKEVILLE     CLEAR     70  70 100 CALM      30.11S
CROSSVILLE     PTCLDY    70  64  81 CALM      30.16S
$$

TNZ061-075-076-078-094-096-097-310600-
SOUTH MIDDLE TENNESSEE

CITY           SKY/WX    TMP DP  RH WIND       PRES   REMARKS
FAYETTEVILLE   CLEAR     64  64 100 NE6       30.10F
TULLAHOMA      CLOUDY    63  63 100 CALM      30.13R VSB 1/4
WINCHESTER     MOCLDY    64  64 100 CALM      30.12S
MCMINNVILLE    CLEAR     64  64 100 CALM      30.13R
COLUMBIA       CLEAR     66  66 100 CALM      30.08F
SHELBYVILLE    CLEAR     66  66 100 CALM      30.12R
$$

TNZ017-018-042-046-047-310600-
NORTHEAST TENNESSEE

CITY           SKY/WX    TMP DP  RH WIND       PRES   REMARKS
TRI CITIES     CLOUDY    68  63  84 CALM      30.15F
ELIZABETHTON   CLOUDY    66  61  82 CALM      30.16S
$$

TNZ012-013-036-069-073-074-310600-
CENTRAL EAST TENNESSEE

CITY           SKY/WX    TMP DP  RH WIND       PRES   REMARKS
KNOXVILLE      CLOUDY    70  64  81 CALM      30.10S
OAK RIDGE      CLOUDY    73  67  81 CALM      30.13R
GATLINBURG     CLEAR     64  63  94 CALM      30.11F
MORRISTOWN     PTCLDY    66  63  88 CALM      30.14F
$$

TNZ083-085-099-310600-
SOUTHEAST TENNESSEE

CITY           SKY/WX    TMP DP  RH WIND       PRES   REMARKS
CHATTANOOGA    PTCLDY    71  64  78 CALM      30.11S
$$

SKY/WX REPORTED AS FAIR MEANS FEW OR NO CLOUDS BELOW
12 THOUSAND FEET.




USA.gov is the U.S. government's official web portal to all federal, state and local government web resources and services.